Location: Bruch
(44.2051°N, 0.4120°E)
Time: 08:57:19
(UTC+00:00)

NOSS 3-4 (C) - Pass Details

Date: 29 November 2020
Orbit: 878 x 1334 km, 63.4° (Epoch: 22 January)

Event Time Altitude Azimuth Distance (km) Brightness Sun altitude
Exits shadow 04:00:59 56° 90° (E) 1,073 3.9 -33.6°
Drops below altitude 10° 04:06:20 10° 43° (NE) 2,689 6.3 -32.6°
Sets 04:09:01 0° 40° (NE) 3,696 7.0 -32.1°
